Location: ???????
(55.4362°N, 38.1183°E)
Time: 16:45:30
(UTC+00:00)

Cosmos 2333 Rocket - Pass Details

Date: 24 October 2021
Orbit: 837 x 865 km, 70.8° (Epoch: 04 December)

Event Time Altitude Azimuth Distance (km) Brightness Sun altitude
Exits shadow 23:49:56 26° 8° (N) 1,633 4.0 -36.9°
Maximum altitude 23:51:17 29° 32° (NNE) 1,541 3.9 -36.7°
Drops below altitude 10° 23:56:15 10° 91° (E) 2,508 5.2 -36.2°
Sets 23:59:04 0° 103° (ESE) 3,445 5.9 -35.9°
